Regional Weather Roundup
Issued by NWS Sioux Falls, SD

Home | Current Version | Previous Version | Text Only | Print | Product List | Glossary On
Versions: 1 2 3 4 5 6 7 8 9 10 11 12 13 14 15 16 17 18 19 20 21 22 23 24 25 26 27 28 29 30 31 32 33 34 35 36 37 38 39 40 41 42 43 44 45 46 47 48 49 50
000
ASUS43 KFSD 282102
RWRFSD

WEATHER ROUNDUP FOR SE SOUTH DAKOTA/SW MINNESOTA/NW IOWA
NATIONAL WEATHER SERVICE SIOUX FALLS SD
400 PM CDT MON JUL 28 2014

NOTE: "FAIR" INDICATES FEW OR NO CLOUDS BELOW 12,000 FEET WITH NO
SIGNIFICANT WEATHER AND OR OBSTRUCTIONS TO VISIBILITY.


SDZ038>040-050-052>070-282200-
SOUTHEAST SOUTH DAKOTA

CITY           SKY/WX    TMP DP  RH WIND       PRES   REMARKS
CHAMBERLAIN    MOSUNNY   76  51  40 N8        30.26F
HURON          PTSUNNY   72  52  49 N10       30.26F
MADISON        FAIR      68  55  64 N10       30.27S
MITCHELL       MOSUNNY   76  52  43 VRB3      30.26F
SIOUX FALLS    MOSUNNY   74  54  49 NW9       30.25S
WINNER         FAIR      82  49  31 NE9       30.26F
YANKTON        MOSUNNY   73  54  49 NW10      30.25F
$$

MNZ071-072-080-081-089-090-097-098-282200-
SOUTHWEST MINNESOTA

CITY           SKY/WX    TMP DP  RH WIND       PRES   REMARKS
FAIRMONT       CLOUDY    73  52  46 N9        30.21S
JACKSON        PTSUNNY   72  54  53 N6        30.23S
LUVERNE        CLOUDY    73  52  46 NW6       30.25S
MARSHALL       PTSUNNY   72  54  53 N12       30.23S
MONTEVIDEO     SUNNY     75  54  46 N12       30.24F
PIPESTONE      MOSUNNY   72  54  53 NE9       30.25F
REDWOOD FALLS  SUNNY     75  50  41 NW13      30.21F
TRACY          CLOUDY    71  54  54 N10       30.25S
WINDOM         PTSUNNY   72  55  56 N10       30.23S
WORTHINGTON    PTSUNNY   70  52  52 N12       30.25S
$$

IAZ001>003-012>014-020>022-031-032-NEZ013-014-SDZ071-282200-
NORTHWEST IOWA

CITY           SKY/WX    TMP DP  RH WIND       PRES   REMARKS
CHEROKEE       PTSUNNY   73  60  63 N8        30.22F
DENISON        MOSUNNY   73  57  56 NW8G14    30.20F
ESTHERVILLE    PTSUNNY   72  55  55 N10       30.21F
LE MARS        PTSUNNY   75  57  53 N10       30.23F
SIOUX CITY     SUNNY     79  58  48 NW8       30.22F
SPENCER        PTSUNNY   73  56  54 N8        30.23S
STORM LAKE     MOSUNNY   72  61  68 NW6       30.23F
$$

ABBREVIATIONS USED IN REMARKS
   TC - TEMPERATURE IN CELSIUS
  WCI - WIND CHILL INDEX
   HX - HEAT INDEX
  VSB - VISIBILITY




USA.gov is the U.S. government's official web portal to all federal, state and local government web resources and services.